Regional Weather Roundup
Issued by NWS

Home | Current Version | Previous Version | Text Only | Print | Product List | Glossary Off
Versions: 1 2 3 4 5 6 7 8 9 10 11 12 13 14 15 16 17 18 19 20 21 22 23 24 25 26 27 28 29 30 31 32 33 34 35 36 37 38 39 40 41 42 43 44 45 46 47 48 49 50

000
ASUS43 KFSD 290102
RWRSD

WEATHER ROUNDUP FOR SOUTH DAKOTA
NATIONAL WEATHER SERVICE SIOUX FALLS SD
800 PM CDT SAT MAR 28 2015

NOTE: "FAIR" INDICATES FEW OR NO CLOUDS BELOW 12,000 FEET WITH NO
SIGNIFICANT WEATHER AND/OR OBSTRUCTIONS TO VISIBILITY.


SDZ001>005-009-010-012>017-290200-
NORTHWEST AND NORTH CENTRAL SOUTH DAKOTA

CITY           SKY/WX    TMP DP  RH WIND       PRES   REMARKS
BUFFALO          N/A     57  45  64 NW43G56   29.58R
FAITH            N/A     71  31  22 SE12      29.49F
MOBRIDGE       PTCLDY    58  36  43 SE20      29.53F
$$

SDZ012>016-024>037-041>051-057-063-072>074-290200-
SOUTHWEST AND SOUTH CENTRAL SOUTH DAKOTA

CITY           SKY/WX    TMP DP  RH WIND       PRES   REMARKS
RAPID CTY ARPT PTCLDY    78  22  12 W20G31    29.55S
PIERRE         CLEAR     62  35  36 SE20      29.56F
CUSTER         CLOUDY    68  19  15 W18G40    29.70F
ELLSWORTH AFB  MOCLDY    77  28  16 NW30G40   29.55S
PHILIP         PTCLDY    72  27  18 S6        29.49F
PINE RIDGE     MOCLDY    73  26  17 SW10      29.61F
SPEARFISH      FAIR      61  39  44 NW20G39   29.74R
WINNER         FAIR      66  33  29 S22G33    29.64F
$$

SDZ004>011-016>023-039-040-290200-
NORTHEAST SOUTH DAKOTA

CITY           SKY/WX    TMP DP  RH WIND       PRES   REMARKS
ABERDEEN       CLEAR     51  31  46 S23       29.69F
WATERTOWN      CLEAR     46  29  51 S18G26    29.79F
SISSETON         N/A     47  31  53 S15       29.76F
$$

SDZ017-020-022-023-036>040-048>070-290200-
SOUTHEAST SOUTH DAKOTA

CITY           SKY/WX    TMP DP  RH WIND       PRES   REMARKS
SIOUX FALLS    CLEAR     49  27  42 S18G25    29.88F
HURON          CLEAR     52  32  46 S22G29    29.74F
CHAMBERLAIN    CLEAR     56  33  41 SE20G26   29.67F
MITCHELL       CLEAR     52  33  48 S22       29.79F
YANKTON        CLEAR     50  30  46 SE14G22   29.89F
$$

ABBREVIATIONS USED IN REMARKS
   TC - TEMPERATURE IN CELSIUS
  WCI - WIND CHILL INDEX
   HX - HEAT INDEX
  VSB - VISIBILITY



USA.gov is the U.S. government's official web portal to all federal, state and local government web resources and services.